Location: Washington
(38.8950°N, 77.0370°W)
Time: 00:26:05
(UTC-04:00)

IDEFIX/ARIANE 42P - Visible Passes

Search period start: 02 April 2015 00:00
Search period end: 12 April 2015 00:00
Orbit: 785 x 804 km, 98.3° (Epoch: 31 March)

Date Brightness Start Highest point End Pass type
(mag) Time Alt. Az. Time Alt. Az. Time Alt. Az.
02 Apr 2.9 20:29:53 10° S 20:35:04 68° WSW 20:40:16 10° NNW visible
03 Apr 2.6 20:01:43 10° SSE 20:06:51 66° ENE 20:12:02 10° N visible
03 Apr 5.3 21:44:18 10° WSW 21:47:02 14° W 21:49:29 10° WNW visible
04 Apr 4.7 21:14:06 10° SSW 21:18:28 26° W 21:22:42 10° NW visible
05 Apr 3.6 20:45:01 10° S 20:50:02 48° W 20:55:03 10° NNW visible
06 Apr 2.6 20:16:33 10° SSE 20:21:46 89° W 20:26:59 10° NNW visible
07 Apr 5.1 21:29:54 10° SW 21:33:34 18° W 21:37:01 10° NW visible
08 Apr 4.2 21:00:20 10° SSW 21:05:03 34° W 21:09:43 10° NNW visible
09 Apr 3.0 20:31:32 10° S 20:36:42 64° W 20:41:51 10° NNW visible
10 Apr 2.6 20:03:19 10° SSE 20:08:28 70° ENE 20:13:38 10° N visible
10 Apr 5.4 21:46:16 10° WSW 21:48:42 13° W 21:50:49 10° WNW visible
11 Apr 4.8 21:15:52 10° SSW 21:20:06 24° W 21:24:13 10° NW visible
